Voltar ao catálogo

CZ-4 DEB

AtivoPO
NORAD 35378·DEBRIS·🇨🇳 China

Lançado Oct 23, 2006 de Taiyuan Satellite Launch Center

Loading…

Próximas Passagens (próximas 24 horas)

TLE

AtualizadoSource: Space-Track

Época: Sep 14, 2026, 13:35 UTC

1 35378U 06046L   26257.56664466  .00061353  00000-0  15388-2 0  9992
2 35378  97.8213   2.1817 0036374 283.9607  75.7594 15.39126702 54355

Acompanhe CZ-4 DEB em tempo real com AllMySat

Download on the App Store